Montana Department of Transportation

Bigge Crane Megaload Permit Issued

A permit has been issued for a megaload to travel from Idaho through Montana to Great Falls. The move, planned for seven stages, will travel at night to minimize travel disruptions to others along the route. MORE INFORMATION

Main Content

Accidents and Incidents Report

Hourly Weather Roundup

ASUS45 KTFX 220719
RWRMT 
MONTANA HOURLY WEATHER ROUNDUP
NATIONAL WEATHER SERVICE GREAT FALLS MT
119 AM MDT FRI AUG 22 2014

NOTE: "FAIR" INDICATES FEW OR NO CLOUDS BELOW 12000 FEET WITH NO
SIGNIFICANT WEATHER AND/OR OBSTRUCTIONS TO VISIBILITY.

* THESE STATIONS ARE NOT UNDER NWS QUALITY CONTROL. THEY DO NOT
   REPORT WEATHER SUCH AS PRECIPITATION OR FOG.

MTZ001.007-043-220800-
WEST OF THE DIVIDE
CITY           SKY/WX    TMP DP  RH WIND       PRES   REMARKS
KALISPELL      CLOUDY    57  45  64 NE13      30.06S 
MISSOULA       CLOUDY    61  50  67 SE8       30.04F 
BUTTE          LGT RAIN  52  46  80 E7        30.16R 
MULLAN PASS    CLOUDY    48  45  89 E6        30.08F 
* ESSEX        N/A       54  43  67 E3G12      N/A   
* LINCOLN      N/A       52  49  90 E4G9       N/A   
* LOOKOUT PASS N/A       52  47  83 S2         N/A   
* POLSON       N/A       54  48  80 N2         N/A   
* RONAN APT    CLOUDY    55  52  90 N/A        N/A   
* SEELEY LAKE  N/A       51  50  96 E1G7       N/A   
* THOMP F APT  CLOUDY    48  45  89 NE1G9      N/A   
* YAAK HILL    N/A       57  52  83 N/A        N/A   
--------------------------------

MTZ008-052.055-220800-
SOUTHWEST MONTANA
CITY           SKY/WX    TMP DP  RH WIND       PRES   REMARKS
BOZEMAN        CLOUDY    54  52  93 W5        30.11S 
DILLON         RAIN      52  48  86 NE13      30.12S 
W YELLOWSTONE  LGT RAIN  46  46 100 E8        30.17F 
* THREE FORKS  CLOUDY    55  37  51 N/A        N/A   
* BOULDER HILL N/A       49  45  86 W1G7       N/A   
* MONIDA PASS  N/A       49  46  89 SE7G12     N/A   
* RAYNOLDS PAS N/A       48  34  59 S15G23     N/A   
* WHITEHALL    N/A       53  50  90 N7G13      N/A   
* WISE RIVER   N/A       50  48  93 S2G10      N/A   
--------------------------------

MTZ009.010-012-014-046-048-049-054-220800-
EAST SLOPES AND CENTRAL MONTANA
CITY           SKY/WX    TMP DP  RH WIND       PRES   REMARKS
CUT BANK       CLOUDY    52  48  86 N9        30.18F 
GREAT FALLS    CLOUDY    54  48  80 NE10      30.14F 
HELENA         FOG       55  52  90 W8        30.11S 
MALMSTROM AFB  CLOUDY    54  50  86 N10       30.15F 
* CONRAD       CLOUDY    52  52 100 N/A        N/A   
* DEARBORN     N/A       54  51  90 VRB13G19    N/A   
* EAST GLACIER N/A       46  45  96 NE3        N/A   
* MONARCH      N/A       48  45  89 NW3        N/A   
* PENDROY      N/A       49  49 100 NE9        N/A   
* ROGERS PASS  N/A       47  47 100 S1G6       N/A   
* SAINT MARY   N/A       47  46  96 NE2        N/A   
* SWEET GRASS  N/A       51  51 100 NE9        N/A   
* WHITE SULPH  N/A       53  50  90 W3         N/A   
--------------------------------

MTZ011-013-016-021-035-040-045-047-050-051-220800-
NORTH CENTRAL MONTANA
CITY           SKY/WX    TMP DP  RH WIND       PRES   REMARKS
HAVRE          CLOUDY    55  50  83 NE9       30.13R 
LEWISTOWN      FOG       54  52  93 W7        30.14S VSB 1    
* FORT BENTON  CLOUDY    55  50  83 NW6       30.15S 
* CHESTER      N/A       53  48  83 NE8G14     N/A   
* DENTON       N/A       53  52  96 W6         N/A   
* JUDITH GAP   N/A       52  52 100 N11        N/A   
* LOMA         N/A       55  51  86 N10        N/A   
--------------------------------

MTZ017.020-022.027-061-062-220800-
NORTHEAST MONTANA
CITY           SKY/WX    TMP DP  RH WIND       PRES   REMARKS
GLASGOW        CLOUDY    61  57  87 E6        30.07S 
GLENDIVE       CLOUDY    61  59  93 CALM      30.06S 
JORDAN         MOCLDY    61  57  87 CALM      30.07S 
SIDNEY         CLOUDY    63  61  93 NW3       30.04S 
WOLF POINT     LGT RAIN  63  57  81 NE5       30.05S 
* BEAVER HILL  N/A       60  59  97 N/A        N/A   
* CIRCLE       N/A       60  58  93 N/A        N/A   
* LINDSAY DVD  N/A       58  57  96 N6         N/A   
* SACO         N/A       57  55  93 N5         N/A   
--------------------------------

MTZ028.042-056.058-220800-
SOUTHCENTRAL AND SOUTHEAST MONTANA
CITY           SKY/WX    TMP DP  RH WIND       PRES   REMARKS
BAKERCLOUDY    61  57  87 E6        30.06R 
BILLINGS       MOCLDY    55  52  90 NW7       30.12F 
LIVINGSTON     LGT RAIN  55  54  96 E10       30.11F 
MILES CITY     CLOUDY    61  57  87 N3        30.05F 
* LAUREL APT   CLOUDY    54  50  86 N/A        N/A   
* ROUNDUP APT  PTCLDY    54  50  86 N/A        N/A   
* ALZADA       N/A       61  60  97 N6         N/A   
* HYSHAM       N/A       57  54  90 W4         N/A   
* LAME DEER    N/A       56  55  96 NW4G9      N/A   
* REED POINT   N/A       56  54  93 SE2        N/A   
* ROSCOE HILL  N/A       52  49  90 E1         N/A   
--------------------------------

REGIONAL REPORTS...DAKOTAS
CITY           SKY/WX    TMP DP  RH WIND       PRES   REMARKS
WILLISTON      CLOUDY    63  59  87 N7        30.03F 
DICKINSON      RAIN      63  61  93 E8        30.00F 
BEACH          N/A       61  61 100 NW3       30.05S 
CROSBY         PTCLDY    55  55 100 N6        30.06S 
TIOGA          CLOUDY    59  59 100 NE10      30.07S 
WATFORD CITY   CLEAR     59  59 100 NE6       30.01S 
BISMARCK       CLOUDY    68  64  87 N3        29.99R 
GRAND FORKS    CLOUDY    68  66  93 N8        29.88S 
FARGO          FOG       66  64  93 CALM      29.88R VSB 1/2  
BUFFALO SD     CLOUDY    61  59  93 N8        29.99R 
RAPID CITY     PTCLDY    63  57  81 N9        30.00R 
--------------------------------

REGIONAL REPORTS...WYOMING/IDAHO/WASHINGTON
CITY           SKY/WX    TMP DP  RH WIND       PRES   REMARKS
GILLETTE       CLOUDY    57  54  90 N8        30.11R 
SHERIDAN       CLOUDY    57  54  90 W8        30.12S 
CODY           CLOUDY    54  50  86 CALM      30.14F 
YELLOWSTONE LA CLOUDY    45  43  93 VRB3      30.28R 
SALMON         CLOUDY    55  50  83 SW6       30.01F 
MULLAN PASS    CLOUDY    48  45  89 E6        30.08S 
SAND POINT     CLOUDY    55  55 100 NE16      29.99S 
SPOKANE        MOCLDY    61  52  72 NE7       29.93S 
--------------------------------

REGIONAL REPORTS...ALBERTA
CITY           SKY/WX    TMP DP  RH WIND       PRES   REMARKS
CALGARY        LGT RAIN  50  46  86 E7        30.24R 
LETHBRIDGE     LGT RAIN  54  52  93 CALM      30.20R 
MEDICINE HAT   MOCLDY    55  54  96 NE5       30.18F 
EDMONTON       FAIR      45  41  86 E6        30.27S 
WATERTON GATE  N/A       46  45  96 N5         N/A   
CARDSTON       N/A       48  48 100 N2         N/A   
MILK RIVER     N/A       52  50  93 N7         N/A   
--------------------------------

REGIONAL REPORTS...SASKATCHEWAN
CITY           SKY/WX    TMP DP  RH WIND       PRES   REMARKS
SWIFT CURRENT  LGT RAIN  54  54 100 NE15G21   30.16R VSB 3    
REGINA         CLOUDY    59  55  87 N6        30.11S 
VAL MARIE      N/A       57  55  93 N12        N/A   
ASSINIBOIA     N/A       57  54  90 NE7        N/A   
CORONACH       N/A       57  55  93 N6         N/A   

--------------------------------